Location: Highridge
(54.0333°N, 114.1333°W)
Time: 07:05:30
(UTC+00:00)

SO-50 - Pass Details

Date: 07 December 2023
Orbit: 608 x 660 km, 64.6° (Epoch: 02 March)

Event Time Altitude Azimuth Distance (km) Brightness Sun altitude
Exits shadow 12:09:44 28° 30° (NNE) 1,227 ? -29.5°
Drops below altitude 10° 12:12:01 10° 42° (NE) 2,042 ? -29.2°
Sets 12:14:20 0° 47° (NE) 2,944 ? -28.8°
